Homer, AK

9:44 AM AKST on February 27, 2017 (GMT -0900)
Homer

Weather History for PAHO - November, 2013

Change the Weather History Date:

Thursday, November 7, 2013

  Actual Average Record
Temperature  
Mean Temperature 37 °F -  
Max Temperature 41 °F 37 °F 51 °F (1979)
Min Temperature 33 °F 25 °F 4 °F (1956)
Degree Days  
Heating Degree Days 28    
Moisture  
Dew Point 28 °F    
Average Humidity 67    
Maximum Humidity 73    
Minimum Humidity 62    
Precipitation  
Precipitation 0.00 in - - ()
Sea Level Pressure  
Sea Level Pressure 29.75 in    
Wind  
Wind Speed 5 mph (NE)    
Max Wind Speed 13 mph    
Max Gust Speed -    
Visibility 10 miles    
Events      
Averages and records for this station are not official NWS values.
T = Trace of Precipitation, MM = Missing Value Source: NWS Daily Summary

Daily Weather History Graph

Daily Weather History Graph

Search for Another Location

Airport or City:

Trip Planner

Search our weather history database for the weather conditions in past years. The results will help you decide how hot, cold, wet, or windy it might be!

Date:

Astronomy

Nov. 07, 2013 Rise Set
Actual Time 8:43 AM AKST 4:55 PM AKST
Civil Twilight 7:56 AM AKST 5:41 PM AKST
Nautical Twilight 7:06 AM AKST 6:31 PM AKST
Astronomical Twilight 6:18 AM AKST 7:19 PM AKST
Moon 1:12 PM AKST (11/7) 9:09 PM AKST (11/7)
Length of Visible Light 9h 44m
Length of Day
8h 12m
Waxing Crescent, 24% of the Moon is Illuminated
Nov 7
Waxing Crescent
Nov 9
First Quarter
Nov 17
Full
Nov 25
Last Quarter
Dec 2
New

Hourly Weather History & Observations

Time (AKST) Temp. Windchill Dew Point Humidity Pressure Visibility Wind Dir Wind Speed Gust Speed Precip Events Conditions
12:53 AM 33.1 °F 30.0 °F 23.0 °F 66% 29.86 in 10.0 mi ENE 3.5 mph - N/A   Overcast
1:53 AM 34.0 °F 29.8 °F 23.0 °F 64% 29.84 in 10.0 mi ENE 4.6 mph - N/A   Overcast
3:53 AM 35.1 °F - 24.1 °F 64% 29.78 in 10.0 mi Calm Calm - N/A   Overcast
4:53 AM 35.1 °F - 26.1 °F 70% 29.76 in 10.0 mi Calm Calm - N/A   Overcast
5:53 AM 37.0 °F 34.5 °F 26.1 °F 65% 29.75 in 10.0 mi NE 3.5 mph - N/A   Overcast
6:53 AM 39.0 °F 34.0 °F 28.0 °F 65% 29.73 in 10.0 mi ENE 6.9 mph - N/A   Overcast
7:53 AM 39.0 °F 36.8 °F 30.9 °F 73% 29.72 in 10.0 mi NE 3.5 mph - N/A   Overcast
8:53 AM 39.0 °F 35.7 °F 30.0 °F 70% 29.70 in 10.0 mi NE 4.6 mph - N/A   Overcast
9:53 AM 41.0 °F 39.0 °F 28.9 °F 62% 29.70 in 10.0 mi NNE 3.5 mph - N/A   Overcast
10:53 AM 41.0 °F - 28.9 °F 62% 29.69 in 10.0 mi Calm Calm - N/A   Overcast
11:53 AM 41.0 °F 35.8 °F 30.0 °F 65% 29.70 in 10.0 mi NE 8.1 mph - N/A   Overcast
12:53 PM 41.0 °F 34.7 °F 28.9 °F 62% 29.68 in 10.0 mi ENE 10.4 mph - N/A   Overcast
1:53 PM 39.9 °F 32.5 °F 30.0 °F 68% 29.68 in 10.0 mi ENE 12.7 mph - N/A   Overcast
2:53 PM 39.9 °F 33.4 °F 30.0 °F 68% 29.68 in 10.0 mi ENE 10.4 mph - N/A   Overcast
3:53 PM 41.0 °F 36.4 °F 30.9 °F 67% 29.69 in 10.0 mi NE 6.9 mph - N/A   Overcast
4:53 PM 39.0 °F 33.4 °F 30.0 °F 70% 29.71 in 10.0 mi NE 8.1 mph - N/A   Overcast
5:53 PM 37.9 °F 30.0 °F 28.9 °F 70% 29.73 in 10.0 mi ENE 12.7 mph - N/A   Overcast
6:53 PM 37.0 °F 31.0 °F 28.0 °F 70% 29.75 in 10.0 mi ENE 8.1 mph - N/A   Overcast
7:53 PM 36.0 °F 32.1 °F 27.0 °F 70% 29.78 in 10.0 mi NE 4.6 mph - N/A   Overcast
8:53 PM 36.0 °F - 26.1 °F 67% 29.81 in 10.0 mi Calm Calm - N/A   Overcast
9:53 PM 36.0 °F - 26.1 °F 67% 29.83 in 10.0 mi Calm Calm - N/A   Mostly Cloudy
10:53 PM 33.1 °F 30.0 °F 25.0 °F 72% 29.86 in 10.0 mi NE 3.5 mph - N/A   Overcast
11:53 PM 33.1 °F 28.7 °F 24.1 °F 70% 29.88 in 10.0 mi ENE 4.6 mph - N/A   Overcast